Electron 73 Kick Stage

Debris
NORAD ID: 65973 Int'l Des: 2025-229 Owner: RLABN Country: NZ
LEOCIRCULAR

About Electron 73 Kick Stage

Description loading...

Live Position

Loading 3D Globe...

Upcoming Passes

Altitude History

Altitude vs Time

uPlot chart will show altitude changes over time

Two-Line Element Set

1 65973U 25229C 26094.01261831 .00010705 00000-0 73961-3 0 9995
2 65973 41.9843 337.8348 0041700 284.6345 74.9861 15.05016191 25798
Epoch: Apr 4, 2026 • Age: 12 hours

Current Status

Altitude 552.1 km
Velocity 7.59 km/s
Sub-Earth Point -14.40°S, 153.48°E
Launch Date Oct 14, 2025
Age 0.4 years
Type debris

Technical Details

Classification Launch Vehicle Stage
Mass 50.00 kg
Dry Mass 50.00 kg
Total Mass 50.00 kg
Length 0.40 m
Diameter 1.20 m
Span 1.20 m
Shape Trunc cone
Manufacturer RLABN
Bus Type Kick Stage
Phase Status In Orbit
Owner/State RLABN/NZ

Large Constellations

Loading constellations...